CZ-4B R/B, 43656

Orbit data source: Space-Track

CZ-4B R/B, 43656 is space debris in SSO originally from a launch on Wed, 24 Oct 2018 UTC via a CHANG ZHENG 4B launch vehicle from the Taiyaun Space Center, China (TSC). Debris objects in space refer to the collection of defunct objects orbiting the Earth. Examples of debris include non-operational satellites, rocket bodies, and fragments generated from explosions, collisions, or faulty payload assembly.

Loading next visibility...
Identifier
43656, 2018-081B
Orbit
SSO
Country
Flag of CNCN / PRC
Related business
Flag of CNAliExpress, Alibaba Group (CN)
Manufacturer
SAST?
Mission
Spacecraft
Bus & Motor
Unknown
Mass
1,020 kg wet, 20 kg dry
Launch date (UTC)
2018-10-24 (7 years ago)
Launch vehicle
CHANG ZHENG 4B
Launch site
Taiyaun Space Center, China (TSC)
Object type
Payload
Rocket body
Debris
Shape & HBR
Unknown
Radar Cross Section
Large (>1 m²)

Expand to show TLE details & history
Last TLE update: 8 hours ago

TLE from 8 hours ago
0 CZ-4B R/B
1 43656U 18081B   25288.95056201  .00000345  00000-0  12075-3 0  9995
2 43656  99.3763 182.3136 0204127 250.1069 107.8014 14.31722465364353
Epoch: 2025-10-15T22:48Z
TLE epoch observation values (Epoch: 2025-10-15T22:48:48.557Z)
Latitude
-0.00007°
Longitude
175.39401°
Altitude
836.285 km
Speed
7.41 km/s
True Right ascension
12h 09m 15s
True Declination
0° 00' 00"
Sunlit
Object was in daylight at epoch
Visualization orbit readout
Latitude
Unknown
Longitude
Unknown
Altitude
Unknown
Speed
Unknown
Apparent Right ascension
Unknown
Apparent Declination
Unknown
Sunlit
N/A
Visualization observer readout
Local Sidereal Time
01:26:42
Azimuth
Unknown
Elevation
Unknown
Doppler factor
Unknown
Orbital elements
Apogee altitude
929.335 km
Perigee altitude
636.972 km
Semi-major axis
7,161.291 km
Eccentricity
0.02041
Inclination
99.3763°
RAAN
182.3136°
Arg. of periapsis
250.1069°
True anomaly
110.01074°
Mean anomaly
107.8014°
Eccentric anomaly
108.90785°
Mean motion
3.58143 °/min
Orbital period
100.52 mins
BSTAR
0.00012075
Loading maneuver chart data...
Computing Atmospheric mass density...
Loading historical data...
Loading historical data...
Loading historical data...
Loading historical data...
Loading historical data...
Loading historical data...
Loading historical data...

Documentation

Showing up to 5 results
|